Wooster, OH

12:31 AM EST on December 10, 2019 (GMT -0500)
Wayne County

Weather History for KBJJ - October, 2019

Change the Weather History Date:

Saturday, October 12, 2019

  Actual Average Record
Temperature  
Mean Temperature 52 °F -  
Max Temperature 68 °F 61 °F 81 °F (2008)
Min Temperature 39 °F 38 °F 30 °F (2000)
Degree Days  
Heating Degree Days 12    
Growing Degree Days 2 (Base 50)    
Moisture  
Dew Point 39 °F    
Average Humidity 77    
Maximum Humidity 97    
Minimum Humidity 37    
Precipitation  
Precipitation 0.08 in - - ()
Sea Level Pressure  
Sea Level Pressure 30.03 in    
Wind  
Wind Speed 10 mph (West)    
Max Wind Speed 15 mph    
Max Gust Speed 26 mph    
Visibility 9 miles    
Events Rain    
Averages and records for this station are not official NWS values.
T = Trace of Precipitation, MM = Missing Value Source: NWS Daily Summary

Daily Weather History Graph

Daily Weather History Graph

Search for Another Location

Airport or City:

Astronomy

Oct. 12, 2019 Rise Set
Actual Time 7:35 AM EDT 6:52 PM EDT
Civil Twilight 7:07 AM EDT 7:19 PM EDT
Nautical Twilight 6:36 AM EDT 7:51 PM EDT
Astronomical Twilight 6:04 AM EDT 8:23 PM EDT
Moon 6:48 PM EDT (10/12) 6:10 AM EDT (10/12)
Length of Visible Light 12h 11m
Length of Day
11h 16m
Waxing Gibbous, 99% of the Moon is Illuminated
Oct 12
Waxing Gibbous
Oct 13
Full
Oct 21
Last Quarter
Oct 27
New
Nov 4
First Quarter

Hourly Weather History & Observations

Time (EDT) Temp. Windchill Dew Point Humidity Pressure Visibility Wind Dir Wind Speed Gust Speed Precip Events Conditions
12:56 AM 66.0 °F - 59.0 °F 78% 29.89 in 10.0 mi SSW 4.6 mph - 0.00 in   Overcast
1:39 AM 57.9 °F - 55.0 °F 90% 29.93 in 10.0 mi NW 15.0 mph 26.5 mph N/A   Overcast
1:45 AM 57.0 °F - 54.0 °F 89% 29.93 in 10.0 mi WNW 13.8 mph 24.2 mph N/A   Overcast
1:56 AM 55.9 °F - 53.1 °F 90% 29.93 in 10.0 mi WNW 12.7 mph 20.7 mph N/A   Overcast
2:05 AM 55.0 °F - 53.1 °F 93% 29.94 in 10.0 mi WNW 13.8 mph - N/A   Overcast
2:56 AM 51.1 °F - 48.9 °F 92% 29.95 in 9.0 mi NW 12.7 mph - N/A   Overcast
3:15 AM 50.0 °F - 46.9 °F 89% 29.96 in 10.0 mi NW 11.5 mph - 0.00 in   Overcast
3:56 AM 48.9 °F - 48.0 °F 97% 29.96 in 9.0 mi NW 10.4 mph 16.1 mph 0.01 in Rain Light Rain
4:06 AM 48.9 °F - 46.9 °F 93% 29.97 in 2.5 mi NW 8.1 mph - 0.03 in Rain Rain
4:14 AM 48.9 °F - 46.9 °F 93% 29.96 in 5.0 mi NW 5.8 mph - 0.03 in Rain Light Rain
4:56 AM 46.9 °F - 46.0 °F 97% 29.97 in 5.0 mi WNW 11.5 mph - 0.05 in Rain Light Rain
5:56 AM 44.1 °F 39.0 °F 42.1 °F 93% 30.00 in 7.0 mi WNW 9.2 mph - 0.02 in Rain Light Rain
6:03 AM 44.1 °F 38.1 °F 42.1 °F 93% 30.00 in 9.0 mi NW 11.5 mph - 0.00 in Rain Light Rain
6:10 AM 44.1 °F 39.0 °F 42.1 °F 93% 30.01 in 10.0 mi WNW 9.2 mph - 0.00 in Rain Light Rain
6:32 AM 44.1 °F 39.0 °F 43.0 °F 96% 30.02 in 10.0 mi WNW 9.2 mph - 0.00 in   Overcast
6:56 AM 43.0 °F 37.2 °F 41.0 °F 93% 30.04 in 7.0 mi West 10.4 mph - 0.00 in   Overcast
7:10 AM 43.0 °F 37.2 °F 41.0 °F 93% 30.04 in 9.0 mi WNW 10.4 mph - N/A   Overcast
7:20 AM 43.0 °F 36.8 °F 39.9 °F 89% 30.05 in 10.0 mi West 11.5 mph 19.6 mph N/A   Overcast
7:56 AM 42.1 °F 35.2 °F 39.0 °F 89% 30.07 in 10.0 mi WNW 12.7 mph - N/A   Overcast
8:42 AM 41.0 °F 35.2 °F 37.0 °F 86% 30.08 in 10.0 mi West 9.2 mph - N/A   Overcast
8:56 AM 39.9 °F 33.4 °F 37.0 °F 89% 30.09 in 10.0 mi West 10.4 mph - N/A   Overcast
9:56 AM 39.9 °F 33.4 °F 32.0 °F 73% 30.11 in 10.0 mi West 10.4 mph 18.4 mph N/A   Scattered Clouds
10:56 AM 43.0 °F 36.4 °F 32.0 °F 65% 30.11 in 10.0 mi West 12.7 mph 19.6 mph N/A   Clear
11:56 AM 45.0 °F 39.7 °F 30.9 °F 58% 30.12 in 10.0 mi West 10.4 mph - N/A   Clear
12:56 PM 48.0 °F - 30.0 °F 50% 30.11 in 10.0 mi West 11.5 mph 19.6 mph N/A   Clear
1:56 PM 50.0 °F - 30.0 °F 46% 30.09 in 10.0 mi West 15.0 mph 19.6 mph N/A   Clear
2:56 PM 51.1 °F - 28.9 °F 43% 30.09 in 10.0 mi West 10.4 mph 19.6 mph N/A   Clear
3:56 PM 52.0 °F - 28.0 °F 40% 30.08 in 10.0 mi West 12.7 mph 18.4 mph N/A   Clear
4:56 PM 52.0 °F - 26.1 °F 37% 30.08 in 10.0 mi WSW 8.1 mph 16.1 mph N/A   Clear
5:56 PM 51.1 °F - 26.1 °F 38% 30.08 in 10.0 mi WSW 8.1 mph - N/A   Clear
6:56 PM 46.9 °F - 28.9 °F 50% 30.09 in 10.0 mi SW 5.8 mph - N/A   Clear
7:56 PM 41.0 °F 38.0 °F 33.1 °F 73% 30.10 in 10.0 mi South 4.6 mph - N/A   Clear
8:56 PM 42.1 °F 38.4 °F 32.0 °F 67% 30.09 in 10.0 mi South 5.8 mph - N/A   Clear
9:56 PM 41.0 °F 36.4 °F 32.0 °F 70% 30.09 in 10.0 mi South 6.9 mph - N/A   Clear
10:56 PM 42.1 °F 38.4 °F 32.0 °F 67% 30.10 in 10.0 mi SSW 5.8 mph - N/A   Clear
11:56 PM 41.0 °F 37.1 °F 32.0 °F 70% 30.08 in 10.0 mi SSW 5.8 mph - N/A   Clear